| time (UTC) | temp F | wind direction | speed knots | gust knots | rain 1hr in | rain 24hr in | rain mn in | humidity % | barometer mb |
| 20260906210050 | 68 | 290 | 0.0 | 2.6 | 0.00 | 0.00 | 0.00 | 73 | 1020.9 |
| 20260906204530 | 68 | 252 | 0.0 | 4.3 | 0.00 | 0.00 | 0.00 | 73 | 1020.7 |
| 20260906203034 | 68 | 145 | 0.0 | 1.7 | 0.00 | 0.00 | 0.00 | 74 | 1020.6 |
| 20260906201528 | 68 | 269 | 0.9 | 3.5 | 0.00 | 0.00 | 0.00 | 72 | 1020.6 |
| 20260906200038 | 68 | 296 | 0.0 | 2.6 | 0.00 | 0.00 | 0.00 | 72 | 1020.7 |
| 20260906194527 | 68 | 265 | 0.0 | 7.0 | 0.00 | 0.00 | 0.00 | 71 | 1020.7 |
| 20260906193026 | 68 | 175 | 0.0 | 4.3 | 0.00 | 0.00 | 0.00 | 75 | 1020.7 |
| 20260906191526 | 68 | 327 | 0.9 | 4.3 | 0.00 | 0.00 | 0.00 | 74 | 1020.7 |
| 20260906190026 | 69 | 141 | 0.0 | 2.6 | 0.00 | 0.00 | 0.00 | 73 | 1020.6 |
| 20260906184524 | 68 | 275 | 0.9 | 6.1 | 0.00 | 0.00 | 0.00 | 75 | 1020.6 |
| 20260906183035 | 69 | 65 | 0.0 | 2.6 | 0.00 | 0.00 | 0.00 | 74 | 1020.6 |
| 20260906181528 | 70 | 63 | 0.0 | 5.2 | 0.00 | 0.00 | 0.00 | 74 | 1020.7 |
| 20260906180035 | 70 | 294 | 0.9 | 5.2 | 0.00 | 0.00 | 0.00 | 73 | 1020.6 |
| 20260906174533 | 70 | 71 | 0.0 | 2.6 | 0.00 | 0.00 | 0.00 | 72 | 1020.5 |
| 20260906173023 | 70 | 276 | 0.0 | 5.2 | 0.00 | 0.00 | 0.00 | 75 | 1020.6 |
| 20260906171517 | 69 | 59 | 0.0 | 2.6 | 0.00 | 0.00 | 0.00 | 79 | 1020.7 |
| 20260906170017 | 67 | 355 | 0.0 | 6.1 | 0.00 | 0.00 | 0.00 | 80 | 1020.8 |
| 20260906164532 | 68 | 285 | 0.0 | 2.6 | 0.00 | 0.00 | 0.00 | 80 | 1020.6 |
| 20260906163024 | 69 | 32 | 0.0 | 2.6 | 0.00 | 0.00 | 0.00 | 77 | 1020.6 |
| 20260906161515 | 68 | 283 | 0.0 | 1.7 | 0.00 | 0.00 | 0.00 | 78 | 1020.6 |
| 20260906160013 | 67 | 269 | 0.0 | 3.5 | 0.00 | 0.00 | 0.00 | 80 | 1020.7 |
| 20260906154515 | 68 | 150 | 0.0 | 7.8 | 0.00 | 0.00 | 0.00 | 80 | 1020.7 |
| 20260906153010 | 68 | 63 | 0.0 | 3.5 | 0.00 | 0.00 | 0.00 | 83 | 1020.4 |
| 20260906151508 | 68 | 299 | 0.0 | 3.5 | 0.00 | 0.00 | 0.00 | 82 | 1020.4 |
| 20260906150019 | 67 | 309 | 0.9 | 3.5 | 0.00 | 0.00 | 0.00 | 85 | 1020.3 |
| 20260906144503 | 66 | 217 | 0.0 | 2.6 | 0.00 | 0.00 | 0.00 | 86 | 1020.3 |
| 20260906143002 | 66 | 261 | 0.0 | 3.5 | 0.00 | 0.00 | 0.00 | 89 | 1020.3 |
| 20260906141611 | 65 | 43 | 0.0 | 1.7 | 0.00 | 0.00 | 0.00 | 93 | 1020.2 |
| 20260906140104 | 65 | 265 | 0.0 | 2.6 | 0.00 | 0.00 | 0.00 | 94 | 1020.1 |
| 20260906134656 | 65 | 229 | 0.9 | 6.1 | 0.00 | 0.00 | 0.00 | 96 | 1019.8 |
| 20260906133051 | 64 | 313 | 0.0 | 2.6 | 0.00 | 0.00 | 0.00 | 98 | 1019.7 |
| 20260906131551 | 64 | 351 | 0.0 | 4.3 | 0.00 | 0.00 | 0.00 | 99 | 1019.6 |
| 20260906130051 | 64 | 313 | 0.0 | 2.6 | 0.00 | 0.00 | 0.00 | 99 | 1019.6 |
| 20260906124547 | 63 | 273 | 0.0 | 5.2 | 0.00 | 0.00 | 0.00 | 99 | 1019.6 |
| 20260906123046 | 63 | 48 | 0.0 | 1.7 | 0.00 | 0.00 | 0.00 | 99 | 1019.3 |
| 20260906121544 | 63 | 283 | 0.0 | 2.6 | 0.00 | 0.00 | 0.00 | 99 | 1019.4 |
| 20260906120048 | 60 | 290 | 0.0 | 0.0 | 0.00 | 0.00 | 0.00 | 98 | 1019.3 |
| 20260906114540 | 60 | 290 | 0.0 | 0.0 | 0.00 | 0.00 | 0.00 | 98 | 1019.0 |
| 20260906113035 | 58 | 290 | 0.0 | 0.0 | 0.00 | 0.00 | 0.00 | 98 | 1018.9 |
| 20260906111536 | 58 | 290 | 0.0 | 0.0 | 0.00 | 0.00 | 0.00 | 98 | 1018.8 |
| 20260906110040 | 58 | 290 | 0.0 | 0.0 | 0.00 | 0.00 | 0.00 | 98 | 1018.6 |
| 20260906104530 | 58 | 290 | 0.0 | 0.0 | 0.00 | 0.00 | 0.00 | 98 | 1018.5 |
| 20260906103030 | 57 | 290 | 0.0 | 0.0 | 0.00 | 0.00 | 0.00 | 98 | 1018.3 |
| 20260906101528 | 58 | 290 | 0.0 | 0.0 | 0.00 | 0.00 | 0.00 | 98 | 1018.2 |
| 20260906100025 | 58 | 290 | 0.0 | 0.0 | 0.00 | 0.00 | 0.00 | 98 | 1018.1 |
| 20260906094530 | 59 | 290 | 0.0 | 0.0 | 0.00 | 0.00 | 0.00 | 98 | 1017.9 |
| 20260906093022 | 59 | 290 | 0.0 | 0.0 | 0.00 | 0.00 | 0.00 | 98 | 1017.7 |
| 20260906091520 | 58 | 290 | 0.0 | 0.0 | 0.00 | 0.00 | 0.00 | 98 | 1017.7 |
| 20260906090018 | 58 | 290 | 0.0 | 0.0 | 0.00 | 0.00 | 0.00 | 98 | 1017.5 |
| 20260906084516 | 58 | 290 | 0.0 | 0.0 | 0.00 | 0.00 | 0.00 | 98 | 1017.2 |
| 20260906083014 | 59 | 290 | 0.0 | 0.0 | 0.00 | 0.00 | 0.00 | 98 | 1017.0 |
| 20260906081534 | 59 | 290 | 0.0 | 0.0 | 0.00 | 0.00 | 0.00 | 98 | 1017.0 |
| 20260906080012 | 59 | 290 | 0.0 | 0.0 | 0.00 | 0.00 | 0.00 | 98 | 1017.0 |
| 20260906074511 | 59 | 290 | 0.0 | 0.0 | 0.00 | 0.00 | 0.00 | 98 | 1017.0 |
| 20260906073008 | 60 | 290 | 0.0 | 0.0 | 0.00 | 0.00 | 0.00 | 98 | 1016.9 |
| 20260906071507 | 60 | 290 | 0.0 | 0.0 | 0.00 | 0.00 | 0.00 | 98 | 1016.8 |
| 20260906070006 | 60 | 290 | 0.0 | 0.0 | 0.00 | 0.00 | 0.00 | 98 | 1016.9 |
| 20260906064506 | 61 | 290 | 0.0 | 0.0 | 0.00 | 0.00 | 0.00 | 98 | 1016.9 |
| 20260906063007 | 61 | 290 | 0.0 | 0.0 | 0.00 | 0.00 | 0.00 | 97 | 1016.9 |
| 20260906061507 | 61 | 290 | 0.0 | 0.0 | 0.00 | 0.00 | 0.00 | 98 | 1016.9 |
| 20260906060004 | 61 | 290 | 0.0 | 0.0 | 0.00 | 0.00 | 0.00 | 98 | 1017.0 |
| 20260906054502 | 61 | 290 | 0.0 | 0.0 | 0.00 | 0.00 | 0.00 | 97 | 1017.0 |
| 20260906053003 | 61 | 290 | 0.0 | 0.0 | 0.00 | 0.00 | 0.00 | 97 | 1017.0 |
| 20260906051501 | 61 | 290 | 0.0 | 0.0 | 0.00 | 0.00 | 0.00 | 97 | 1016.9 |
| 20260906050001 | 61 | 290 | 0.0 | 0.0 | 0.00 | 0.00 | 0.00 | 97 | 1017.0 |
| 20260906044600 | 61 | 290 | 0.0 | 0.0 | 0.00 | 0.00 | 0.00 | 97 | 1017.0 |
| 20260906043058 | 61 | 290 | 0.0 | 0.0 | 0.00 | 0.00 | 0.00 | 97 | 1016.9 |
| 20260906041556 | 60 | 290 | 0.0 | 0.0 | 0.00 | 0.00 | 0.00 | 97 | 1016.8 |
| 20260906040116 | 60 | 290 | 0.0 | 0.0 | 0.00 | 0.00 | 0.00 | 96 | 1016.7 |
| 20260906034603 | 61 | 290 | 0.0 | 0.0 | 0.00 | 0.00 | 0.00 | 96 | 1016.8 |
| 20260906033054 | 61 | 290 | 0.0 | 0.0 | 0.00 | 0.00 | 0.00 | 96 | 1016.7 |
| 20260906031557 | 61 | 290 | 0.0 | 0.0 | 0.00 | 0.00 | 0.00 | 96 | 1016.6 |
| 20260906030052 | 62 | 290 | 0.0 | 0.0 | 0.00 | 0.00 | 0.00 | 95 | 1016.5 |
| 20260906024548 | 63 | 290 | 0.0 | 0.0 | 0.00 | 0.00 | 0.00 | 95 | 1016.5 |
| 20260906023051 | 63 | 290 | 0.0 | 0.0 | 0.00 | 0.00 | 0.00 | 95 | 1016.5 |
| 20260906021600 | 63 | 290 | 0.0 | 0.0 | 0.00 | 0.00 | 0.00 | 94 | 1016.4 |
| 20260906020054 | 64 | 290 | 0.0 | 0.0 | 0.00 | 0.00 | 0.00 | 94 | 1016.3 |
| 20260906014555 | 64 | 290 | 0.0 | 0.0 | 0.00 | 0.00 | 0.00 | 93 | 1016.2 |
| 20260906013044 | 65 | 290 | 0.0 | 0.0 | 0.00 | 0.00 | 0.00 | 93 | 1016.2 |
| 20260906011543 | 65 | 290 | 0.0 | 0.0 | 0.00 | 0.00 | 0.00 | 93 | 1016.2 |
| 20260906010043 | 65 | 290 | 0.0 | 0.0 | 0.00 | 0.00 | 0.00 | 92 | 1016.1 |
| 20260906004542 | 65 | 290 | 0.0 | 0.0 | 0.00 | 0.00 | 0.00 | 91 | 1016.1 |
| 20260906003045 | 65 | 290 | 0.0 | 0.0 | 0.00 | 0.00 | 0.00 | 91 | 1015.8 |
| 20260906001540 | 66 | 290 | 0.0 | 0.0 | 0.00 | 0.00 | 0.00 | 90 | 1015.8 |
| 20260906000040 | 66 | 290 | 0.0 | 0.0 | 0.00 | 0.00 | 0.00 | 88 | 1016.0 |
| 20260905234540 | 66 | 290 | 0.0 | 0.0 | 0.00 | 0.00 | 0.00 | 86 | 1016.1 |
| 20260905233042 | 67 | 290 | 0.0 | 0.0 | 0.00 | 0.00 | 0.00 | 83 | 1016.0 |
| 20260905231541 | 68 | 290 | 0.0 | 0.0 | 0.00 | 0.00 | 0.00 | 81 | 1016.0 |
| 20260905230037 | 70 | 336 | 0.0 | 0.9 | 0.00 | 0.00 | 0.00 | 78 | 1016.1 |
| 20260905224536 | 70 | 277 | 0.9 | 2.6 | 0.00 | 0.00 | 0.00 | 75 | 1016.0 |
| 20260905223039 | 71 | 267 | 0.0 | 1.7 | 0.00 | 0.00 | 0.00 | 74 | 1015.9 |
| 20260905221544 | 71 | 323 | 0.9 | 3.5 | 0.00 | 0.00 | 0.00 | 73 | 1015.8 |
| 20260905220034 | 71 | 283 | 0.9 | 2.6 | 0.00 | 0.00 | 0.00 | 71 | 1015.8 |
| 20260905214533 | 72 | 283 | 0.9 | 5.2 | 0.00 | 0.00 | 0.00 | 71 | 1015.7 |
| 20260905213035 | 72 | 355 | 0.0 | 6.1 | 0.00 | 0.00 | 0.00 | 71 | 1015.4 |
| 20260905211542 | 72 | 276 | 0.0 | 4.3 | 0.00 | 0.00 | 0.00 | 69 | 1015.3 |